Lapse_Rate
2.2 2.2 2.2 2.0 2.1 2.1 2.3 2.2 2.0 1.7 1.4 1.0 0.4 0.3 0.6 -0.5 -0.8 2.6 3.9 4.6 3.8 3.9 2.7 3.8 4.3 3.4 3.4 3.9 4.0 3.1 6.5 6.5 6.5 6.5 6.5 5.5 6.3 4.4 4.5 5.8 3.8 3.6 4.0 4.7 2.4
2.3 2.3 2.3 2.2 2.3 2.2 2.3 2.2 2.0 2.1 1.7 1.2 0.8 0.7 1.1 -0.4 0.1 3.3 5.3 5.1 4.4 3.7 4.9 4.1 4.1 3.3 2.7 4.1 3.6 5.1 6.5 6.5 6.5 6.4 6.5 6.3 6.3 5.2 5.4 4.5 5.6 4.0 2.2 1.9 2.9
2.5 2.5 2.6 2.6 2.5 2.6 2.5 2.5 2.3 2.0 1.9 1.6 1.2 1.5 1.9 0.1 3.4 6.1 5.7 5.1 4.2 3.2 4.5 4.7 4.8 5.4 5.5 4.4 5.0 5.9 6.5 6.5 6.2 5.6 4.5 5.8 5.7 5.1 6.0 6.5 5.6 5.3 2.7 2.4 3.3
2.7 2.6 2.8 2.9 2.9 2.8 2.7 2.6 2.6 2.3 1.9 1.6 1.5 2.1 2.0 2.8 6.5 6.0 5.7 4.3 4.5 3.5 5.3 5.3 4.8 5.5 6.2 6.5 5.5 6.5 5.9 6.0 5.7 5.8 5.3 6.1 5.2 5.7 5.2 4.8 4.4 4.5 2.1 2.4 2.6
2.9 2.9 2.9 3.0 3.1 3.2 2.9 2.9 2.7 2.4 2.0 1.7 1.9 2.8 3.2 4.3 3.9 4.5 4.9 4.7 5.1 5.4 5.8 5.8 5.7 5.8 6.5 6.1 5.7 6.5 6.4 5.2 5.1 4.9 5.1 4.9 5.4 6.1 4.7 3.7 3.2 3.1 2.4 2.4 2.2
2.9 3.1 3.0 3.3 3.3 3.4 3.6 3.4 3.2 3.0 2.6 2.7 2.7 3.5 4.7 5.8 5.0 4.2 3.3 4.3 4.8 5.2 5.4 6.3 6.5 6.3 6.3 6.3 6.5 6.0 5.7 5.3 4.9 4.8 4.6 6.2 6.1 5.9 4.6 3.4 3.3 3.4 1.8 2.5 2.7
2.7 2.9 3.3 3.5 3.8 3.8 3.9 4.0 3.7 3.4 3.1 3.2 3.4 4.9 5.2 2.5 3.9 3.5 2.7 3.6 4.4 4.8 4.7 6.9 6.8 6.2 6.2 6.4 6.2 6.1 6.5 6.4 6.0 5.7 6.2 6.1 6.5 6.5 4.2 4.0 3.1 2.7 2.1 2.3 2.5
3.2 2.6 2.8 3.3 3.7 3.8 4.1 4.2 4.0 3.8 3.4 3.7 4.1 5.6 4.8 3.1 3.2 1.9 2.1 2.4 2.6 3.7 5.1 5.5 6.2 6.9 6.4 6.1 5.8 6.5 6.5 6.5 6.5 6.3 5.8 6.1 6.5 6.5 3.9 4.1 3.4 3.2 2.9 2.7 2.6
3.4 3.1 2.8 3.0 3.6 3.9 4.3 4.5 4.0 3.6 4.3 4.6 5.5 5.2 4.2 4.7 3.6 4.4 3.5 3.6 4.5 5.2 5.8 7.4 6.8 6.1 6.4 6.5 6.5 6.5 6.5 6.5 6.5 6.2 6.5 6.5 6.5 6.3 4.3 4.0 4.4 3.5 2.0 2.0 1.8
3.6 3.3 3.1 3.0 3.2 4.0 4.7 3.8 3.6 5.0 5.2 6.5 7.1 5.9 3.5 5.0 6.1 5.9 3.6 4.8 5.7 6.5 6.8 6.5 4.8 6.5 6.5 6.5 6.5 6.5 6.5 6.5 6.5 6.5 6.5 6.5 6.5 6.5 4.1 4.6 4.9 2.7 1.4 1.0 1.3
3.4 3.4 3.6 3.4 3.3 3.7 3.2 4.4 6.0 5.9 6.1 5.2 4.6 5.0 5.3 6.0 6.9 6.8 5.7 5.2 6.3 6.4 6.5 5.8 6.5 6.5 6.5 6.5 6.5 6.5 6.5 6.5 6.5 6.5 6.5 6.5 6.5 6.5 5.4 4.7 4.5 3.1 1.6 0.4 -0.6
3.5 3.1 3.6 3.9 3.2 3.1 4.7 4.9 5.9 5.6 5.8 5.0 6.1 6.0 4.4 5.7 6.4 5.4 6.9 6.2 6.0 6.5 6.4 6.5 6.5 6.5 6.5 6.5 6.5 6.5 6.5 6.5 6.5 6.5 6.5 6.5 6.5 6.5 6.5 6.3 5.8 4.8 3.2 1.5 0.4
3.3 3.0 3.1 4.0 3.6 4.9 5.5 5.6 5.8 6.5 6.1 6.2 4.3 5.6 6.1 5.4 6.7 5.1 6.4 5.9 6.3 6.5 6.5 6.5 6.5 6.5 6.5 6.5 6.5 6.5 6.5 6.5 6.5 6.5 6.5 6.5 6.5 6.5 6.4 6.1 5.5 4.9 4.2 3.0 1.1
3.5 3.0 2.9 2.9 4.6 6.1 6.5 5.3 6.0 6.3 6.5 6.5 6.6 6.5 6.3 7.1 6.5 7.2 5.6 6.0 6.3 6.5 6.5 6.5 6.4 6.5 6.5 6.5 6.5 6.5 6.5 6.5 6.5 6.5 6.5 6.5 6.5 6.5 6.5 6.5 6.5 5.0 3.6 3.9 1.7
3.9 3.4 2.4 3.6 5.2 6.0 6.1 5.0 5.9 5.3 6.5 6.5 6.6 7.0 7.1 6.7 6.2 6.9 6.3 5.6 6.5 6.5 6.5 6.5 6.5 6.5 6.5 6.5 6.5 6.5 6.5 6.5 6.5 6.5 6.5 6.5 6.5 6.5 6.5 6.5 6.5 5.9 4.6 4.1 3.7
4.1 3.6 3.1 3.6 4.8 5.1 5.4 5.8 5.9 6.5 6.5 6.5 6.4 6.5 6.5 6.5 6.4 6.3 6.7 6.7 5.6 6.5 6.5 6.5 6.2 6.5 6.5 6.5 6.5 6.5 6.5 6.5 6.5 6.5 6.5 6.5 6.5 6.5 6.5 6.5 6.5 6.4 4.6 3.7 2.8
4.5 3.8 3.5 4.7 5.9 4.4 5.4 5.8 6.5 6.5 6.5 6.5 6.5 6.5 6.5 6.5 6.5 6.5 6.5 6.5 6.5 6.5 6.5 6.5 6.5 6.5 6.4 6.5 6.5 6.5 6.5 6.5 6.5 6.5 6.5 6.5 6.5 6.5 6.5 6.5 6.5 6.4 5.6 3.5 2.4
4.4 3.6 4.3 4.9 3.7 4.8 6.1 6.4 6.5 6.5 6.5 6.5 6.5 6.5 6.5 6.5 6.5 6.5 6.5 6.5 6.5 6.5 6.5 6.5 6.5 6.5 6.5 6.5 6.5 6.5 6.5 6.5 6.5 6.5 6.5 6.5 6.5 6.5 6.5 5.8 5.3 5.1 4.9 3.4 2.9
4.5 4.4 4.7 4.2 4.2 5.4 6.4 6.5 6.5 6.5 6.5 6.5 6.5 6.5 6.5 6.5 6.5 6.5 6.5 6.5 6.5 6.5 6.5 6.5 6.5 6.5 6.5 6.5 6.5 6.5 6.5 6.5 6.5 6.5 6.5 6.5 6.5 6.5 6.5 6.5 6.1 5.7 5.0 4.4 3.9
5.5 5.4 5.6 3.8 4.7 5.7 6.5 6.5 6.5 6.5 6.5 6.5 6.5 6.5 6.5 6.5 6.5 6.5 6.5 6.5 6.5 6.5 6.4 6.5 6.5 6.5 6.5 6.3 6.3 6.5 6.5 6.5 6.5 6.5 6.5 6.5 6.5 6.5 6.5 6.5 6.5 6.3 4.8 4.0 4.0
6.0 5.7 2.7 4.3 4.9 6.3 6.5 6.5 6.5 6.7 6.7 6.5 6.5 6.5 6.5 6.5 6.5 6.5 6.5 6.5 6.5 6.5 6.4 6.5 6.5 6.5 6.5 6.5 6.5 6.5 6.5 6.5 6.5 6.5 6.5 6.5 6.5 6.5 6.5 6.5 6.5 6.2 5.4 3.5 2.3
5.9 6.5 1.7 2.6 6.5 6.4 6.5 6.5 6.5 6.5 6.9 6.5 6.5 6.5 6.5 6.5 6.5 6.5 6.5 6.5 5.8 6.4 6.5 6.5 6.5 6.5 6.5 6.5 6.5 6.5 6.5 6.5 6.5 6.5 6.5 6.5 6.5 6.5 6.5 6.3 5.5 4.6 3.8 5.2 3.4
5.1 4.9 2.6 1.7 6.5 6.5 6.5 6.5 6.5 6.5 6.5 6.5 6.5 6.5 6.5 6.5 6.5 6.5 6.5 6.4 5.8 6.5 6.5 6.5 6.5 6.5 6.5 6.5 6.5 6.5 6.5 6.5 6.5 6.5 6.5 6.5 6.5 6.5 6.3 6.3 6.2 5.1 3.8 4.2 4.6
4.5 6.5 5.3 4.8 4.2 6.5 6.5 6.5 6.5 6.6 6.5 6.6 6.5 6.5 6.5 6.5 6.5 6.5 6.5 6.5 6.2 6.3 5.1 5.5 6.5 6.5 6.5 6.5 6.5 6.5 6.5 6.5 6.5 6.5 6.5 6.5 6.5 6.5 6.5 6.5 6.1 4.8 4.6 4.7 4.6
4.3 6.4 6.1 6.5 6.5 6.5 6.5 6.5 6.5 6.5 6.6 6.7 6.5 6.5 6.5 6.5 6.5 6.5 6.5 6.5 6.4 6.3 6.3 6.5 6.5 6.5 6.5 6.5 6.5 6.5 6.5 6.5 6.5 6.5 6.5 6.5 6.5 6.5 6.5 6.5 5.9 5.5 4.3 4.8 4.9
5.2 6.2 6.1 6.5 6.3 6.5 6.5 6.5 6.5 6.5 6.5 6.5 6.5 6.5 6.5 6.5 6.5 6.5 6.5 6.5 6.5 6.5 6.5 6.5 6.5 6.5 6.5 6.5 6.5 6.5 6.5 6.5 6.5 6.5 6.5 6.5 6.5 6.5 5.3 5.3 5.3 4.8 4.8 4.4 3.6
4.7 4.5 4.8 6.5 6.5 6.5 6.5 6.5 6.5 6.5 6.7 6.7 6.5 6.5 6.5 6.5 6.2 5.9 5.7 5.8 6.4 6.5 6.5 6.5 6.5 6.5 6.5 6.5 6.5 6.5 6.5 6.5 6.5 6.5 6.5 6.5 6.5 6.5 6.5 6.4 5.8 4.8 4.5 3.8 3.2
Wind_Speed
19 18 16 15 13 10 8 6 6 6 9 13 16 20 24 26 25 4 2 3 4 14 8 7 7 9 4 4 4 3 4 1 3 2 3 5 8 6 4 2 4 4 2 4 16
20 19 18 17 15 12 10 8 6 7 8 11 16 21 25 24 4 5 5 4 5 11 6 8 8 9 5 5 4 4 3 7 3 3 5 3 1 6 6 9 1 3 4 11 14
21 20 19 18 17 15 12 9 7 5 6 9 14 20 25 16 5 4 4 3 7 8 2 1 3 2 4 4 4 3 3 2 3 5 8 5 5 3 3 5 3 5 3 11 8
22 21 20 19 18 16 13 10 8 5 3 7 12 18 24 3 5 1 1 4 9 9 3 4 5 4 3 4 2 3 4 4 7 6 5 8 6 6 5 7 6 7 13 14 14
23 22 21 19 18 16 13 10 8 5 3 5 9 15 6 4 8 5 7 7 5 4 3 3 4 2 1 4 6 4 3 8 7 9 7 6 7 6 7 12 12 6 8 15 17
25 24 21 19 18 15 13 11 8 6 2 3 7 8 3 3 4 3 10 7 5 4 5 3 3 2 2 3 0 4 6 8 7 10 7 6 4 0 9 10 10 8 12 15 16
26 26 25 23 21 18 15 12 9 6 2 1 5 2 1 13 3 13 10 3 2 1 4 3 3 5 2 4 3 5 6 8 5 4 4 2 4 5 9 8 11 10 10 14 17
26 25 25 24 24 19 16 12 8 6 2 1 3 2 6 5 9 8 3 6 6 6 5 7 3 1 3 4 6 3 2 4 5 4 5 4 5 9 9 8 11 11 4 11 18
27 25 25 26 24 21 15 11 7 5 3 2 2 3 9 8 3 7 8 3 3 5 5 2 3 3 0 3 4 3 3 3 7 4 4 3 6 7 12 8 9 9 9 6 8
28 27 26 26 24 19 15 12 9 8 1 2 2 3 5 4 4 3 4 3 3 5 3 3 3 3 1 4 4 5 3 3 4 6 3 8 9 9 10 6 7 8 8 8 7
29 27 26 25 24 25 20 7 3 2 5 8 7 3 3 5 4 1 4 5 3 3 5 4 4 10 10 9 3 2 3 4 5 11 4 8 5 9 7 5 7 7 7 7 8
29 28 26 24 28 32 14 5 6 5 3 18 15 11 10 3 5 4 2 5 5 6 4 2 12 9 6 5 4 6 7 8 7 10 5 7 10 8 4 1 3 5 6 6 6
28 27 29 29 28 16 15 10 4 3 3 5 11 12 11 9 12 12 3 5 5 7 8 7 5 6 9 5 6 9 6 7 8 6 4 5 6 5 3 4 7 9 9 9 10
26 28 29 33 17 10 14 8 6 4 3 6 7 8 9 6 8 17 13 7 6 12 7 8 13 6 5 6 10 5 9 13 11 3 2 2 5 3 1 6 6 9 9 10 13
24 25 32 34 12 15 9 15 8 5 4 6 6 6 10 11 4 10 10 6 11 9 7 8 4 7 9 11 8 8 9 8 5 2 3 3 1 5 5 4 4 7 8 10 10
26 29 38 10 4 9 23 14 5 6 9 2 7 7 8 12 3 4 7 3 5 3 2 7 1 1 5 3 6 3 3 5 4 2 2 6 7 4 3 5 2 2 6 7 7
28 34 28 10 8 26 18 8 6 3 0 6 7 8 8 6 8 5 13 10 8 7 10 0 13 4 4 2 1 3 5 2 3 1 5 3 3 4 4 4 5 5 4 7 6
29 32 24 7 26 25 9 6 8 10 10 2 8 9 9 7 6 5 13 15 9 4 3 10 5 12 6 13 6 6 7 5 6 4 3 5 4 4 5 5 5 4 3 5 7
25 10 7 9 28 15 13 11 8 5 8 6 10 6 5 4 7 6 8 16 14 8 7 5 6 2 6 6 14 5 5 6 6 3 3 3 1 4 4 4 4 4 3 5 2
10 8 10 19 27 14 15 18 12 8 3 9 11 7 13 12 7 13 11 9 7 16 4 4 1 1 3 5 3 8 7 3 3 4 5 4 4 5 8 6 6 6 6 5 4
10 4 4 23 13 11 13 9 10 12 8 9 9 6 6 9 10 14 9 5 16 14 15 5 3 4 2 4 8 4 4 3 5 4 5 3 5 4 8 6 3 4 3 8 8
9 10 3 6 12 3 8 9 5 8 11 4 2 3 6 9 12 14 11 9 10 14 15 11 4 4 5 6 3 4 8 8 5 6 2 3 4 4 7 6 5 8 7 2 5
4 6 1 2 17 13 5 9 12 12 12 10 5 9 7 4 6 12 9 1 3 13 15 9 5 3 5 4 3 3 2 4 5 3 6 5 4 3 4 6 4 5 8 3 4
4 5 2 2 2 17 12 19 9 6 11 6 8 5 3 6 3 4 4 1 2 3 6 8 4 7 10 3 5 5 4 4 5 3 6 4 2 7 3 3 3 6 7 7 11
3 4 3 9 15 19 18 10 17 8 4 11 8 11 6 6 5 5 4 2 5 4 4 5 5 3 3 3 2 4 8 7 4 7 6 5 6 5 6 3 5 10 10 10 12
6 4 2 5 10 16 17 14 20 7 9 11 7 16 14 7 13 13 11 5 6 2 3 0 4 4 3 3 5 1 6 6 6 5 5 6 11 6 5 5 6 7 7 9 11
1 3 4 5 12 15 12 8 13 16 5 9 9 7 9 6 4 4 4 5 6 7 3 4 6 4 4 4 6 7 10 10 6 6 8 8 10 5 4 4 4 4 4 6 4
Wind_Direction
212 212 212 211 215 218 232 254 287 314 332 339 343 342 337 333 327 347 12 257 290 329 337 323 14 351 26 21 8 116 61 196 266 226 283 343 2 313 304 22 358 353 176 258 138
212 213 212 213 219 220 229 240 265 304 330 342 343 340 336 335 320 302 241 235 296 336 1 6 347 351 2 10 9 80 124 213 242 334 296 300 321 302 354 332 190 324 352 122 145
212 212 214 215 217 221 224 234 249 278 325 342 344 340 333 335 323 228 193 237 303 332 298 260 313 25 4 25 14 353 211 261 313 342 351 300 302 349 323 304 245 273 173 144 162
210 212 213 216 218 219 221 227 241 261 313 346 346 345 329 348 304 232 200 304 315 321 359 13 7 36 4 342 332 360 270 24 304 319 316 313 306 315 239 240 261 241 186 167 178
209 212 214 215 218 223 221 224 238 256 308 355 350 352 4 13 255 357 15 336 330 344 32 9 49 30 352 326 339 194 332 314 282 281 265 248 257 251 253 259 277 237 177 195 195
205 209 211 215 217 218 222 222 227 238 252 340 354 355 55 296 288 25 19 350 27 20 359 30 106 263 301 291 175 311 290 285 290 281 268 263 294 172 280 270 254 215 203 209 206
204 203 206 209 213 212 212 216 216 227 219 330 348 23 201 242 268 310 325 259 157 31 331 310 106 53 350 303 342 292 306 317 262 272 274 43 353 232 263 305 281 262 203 211 217
203 201 202 204 207 207 206 204 204 207 177 130 359 73 250 263 286 280 171 282 213 219 195 260 271 260 173 286 347 330 1 349 292 331 279 136 274 291 319 338 318 298 280 213 227
200 198 198 200 204 200 193 188 179 150 130 167 47 76 264 301 276 271 174 226 143 185 198 256 107 186 42 87 353 335 257 241 317 335 313 12 293 283 308 319 322 333 330 286 259
197 193 195 195 191 186 165 133 126 114 136 206 266 352 263 268 235 204 161 145 104 134 107 144 73 140 137 116 227 229 233 248 253 294 348 303 254 276 280 345 353 347 345 333 296
195 193 190 186 171 152 124 119 136 245 219 199 193 236 276 308 312 140 154 129 111 86 162 177 165 213 187 193 207 346 303 300 266 278 310 280 266 279 302 36 8 354 342 330 316
195 189 182 173 158 155 159 180 184 172 246 230 243 244 274 49 323 289 198 167 146 184 156 108 237 223 185 208 230 267 280 280 281 266 175 271 292 280 287 19 293 307 327 323 311
191 187 178 167 152 160 191 178 173 122 309 244 211 220 227 203 220 251 180 193 179 176 188 187 241 183 177 200 213 237 213 248 226 284 296 322 295 261 45 38 1 351 328 330 328
191 184 172 147 146 174 206 187 153 98 300 251 210 237 185 192 254 198 194 164 215 190 181 227 243 243 179 223 192 242 209 239 250 213 235 51 283 312 310 43 8 350 346 340 355
185 179 158 160 142 183 171 156 134 67 243 192 176 170 163 178 148 205 184 158 192 181 149 228 217 202 208 224 174 228 248 211 215 183 116 249 301 262 126 37 1 340 346 21 20
186 170 168 168 121 159 146 135 111 168 233 237 164 160 148 207 266 97 165 97 134 183 198 214 287 242 203 197 206 197 118 47 43 95 302 223 177 271 289 168 212 336 346 18 51
183 173 172 175 175 145 142 135 193 208 296 199 181 169 172 167 204 167 173 185 166 173 227 170 253 235 173 246 225 103 96 340 334 327 228 303 143 224 184 151 167 148 24 1 28
181 173 191 184 143 147 158 177 225 168 218 192 165 159 188 143 206 171 166 193 228 137 120 196 278 191 187 197 178 182 161 157 212 215 259 300 232 216 170 102 105 90 75 23 18
173 187 192 180 158 163 171 206 196 178 187 184 142 151 206 175 156 171 184 206 203 172 180 166 251 221 183 156 168 176 191 177 110 34 40 236 47 10 117 134 111 114 78 78 45
185 198 188 162 169 172 204 205 202 202 285 212 173 169 183 177 168 187 173 193 197 193 165 209 268 255 172 106 193 180 156 84 347 162 223 250 223 204 180 186 170 141 174 195 219
195 226 141 160 181 189 214 193 208 188 200 230 211 178 170 171 186 192 203 211 191 180 185 160 129 291 136 197 166 123 179 78 129 155 182 188 252 234 144 166 131 1 103 210 216
208 202 235 183 207 134 212 154 170 197 200 127 305 239 175 163 187 196 216 205 191 164 192 196 158 206 226 305 233 162 193 159 161 207 244 154 281 94 139 120 58 322 318 351 218
189 174 326 224 207 202 177 171 174 175 189 151 195 225 206 178 168 193 204 301 224 169 174 168 200 114 339 339 321 167 126 114 103 55 184 160 221 151 137 95 102 303 304 314 303
158 135 139 290 253 195 208 214 186 163 198 147 164 253 164 198 78 183 158 25 343 116 115 107 116 188 214 187 141 157 140 127 127 139 156 208 200 242 292 244 310 310 304 309 290
208 175 172 182 200 191 189 181 198 167 187 153 190 191 174 186 178 193 124 154 354 148 84 123 134 99 33 71 85 126 156 150 127 149 156 178 244 223 237 204 242 257 248 256 268
150 151 94 166 164 177 181 200 187 149 159 180 199 184 188 180 192 188 159 180 179 210 125 239 136 114 36 14 51 203 174 165 169 178 195 199 250 253 262 246 252 256 261 256 254
289 60 102 142 170 174 187 161 178 145 352 169 166 134 140 158 112 44 53 114 144 142 147 120 131 129 170 97 40 305 186 185 186 189 161 193 223 183 250 182 245 291 316 291 283